SCD 1 1 22490U 93009B 26036.83447957 .00000621 00000+0 11859-3 0 9997 2 22490 24.9699 298.5634 0041956 187.5881 229.8879 14.46048724742084 TECHSAT 1B (GO-32) 1 25397U 98043D 26036.84914832 .00000143 00000+0 82110-4 0 9999 2 25397 98.9985 26.3518 0000718 181.8768 178.2407 14.24396894432633 SCD 2 1 25504U 98060A 26036.72894492 .00000677 00000+0 13807-3 0 9992 2 25504 24.9938 162.8250 0016735 173.1373 329.8563 14.45463046441286 DLR-TUBSAT 1 25757U 99029B 26036.84896544 .00000246 00000+0 72309-4 0 9996 2 25757 98.6625 28.0812 0014841 33.4795 326.7335 14.52384433414188 TERRA 1 25994U 99068A 26036.80588765 .00000705 00000+0 15294-3 0 9990 2 25994 97.9660 91.4476 0000967 294.1012 157.2724 14.60979965390422 MAROC-TUBSAT 1 27004U 01056D 26036.49043922 -.00000024 00000+0 24905-4 0 9995 2 27004 99.7960 210.9042 0020524 119.3025 260.4769 13.70256297208159 AQUA 1 27424U 02022A 26036.85273139 .00001706 00000+0 35082-3 0 9994 2 27424 98.4119 3.6525 0001611 55.2963 334.9159 14.61897807264088 IRS-P6 (RESOURCESAT-1) 1 28051U 03046A 26036.83625898 .00000052 00000+0 31187-4 0 9995 2 28051 98.2100 79.6700 0064656 17.4945 91.1401 14.36096309161672 SHIYAN-1 (SY-1) 1 28220U 04012A 26036.76602531 .00022735 00000+0 78345-3 0 9996 2 28220 97.8835 106.5966 0007037 119.6333 240.5608 15.30008194190974 AURA 1 28376U 04026A 26036.85301272 .00001680 00000+0 35174-3 0 9990 2 28376 98.3261 352.3629 0001360 65.7165 294.4177 14.61082134147036 IRS-P5 (CARTOSAT-1) 1 28649U 05017A 26036.66344288 .00002467 00000+0 25708-3 0 9993 2 28649 97.5447 65.6361 0002426 110.8078 249.3401 14.90645097124222 SINAH 1 1 28893U 05043D 26036.83798385 .00000749 00000+0 15200-3 0 9990 2 28893 98.2638 170.5567 0013842 332.0462 27.9995 14.64036908 81301 EROS B 1 29079U 06014A 26036.62405139 .40100622 32075-5 68134-2 0 9996 2 29079 97.3469 162.1703 0054655 337.2927 22.5949 16.28449932 99495 RESURS-DK 1 1 29228U 06021A 26036.85999939 .00004949 00000+0 28912-3 0 9990 2 29228 69.9351 319.3460 0004861 207.6799 152.4109 15.12555791 82714 ARIRANG-2 (KOMPSAT-2) 1 29268U 06031A 26036.85800507 .00000889 00000+0 17578-3 0 9992 2 29268 97.8274 227.6506 0015430 126.8354 346.5306 14.64559719 42257 LAPAN-TUBSAT 1 29709U 07001A 26036.87118362 .00001066 00000+0 12921-3 0 9998 2 29709 98.1299 33.1795 0010827 252.1971 107.8062 14.85778358 31655 HAIYANG-1B 1 31113U 07010A 26036.55350127 .00000194 00000+0 89508-4 0 9999 2 31113 98.3380 23.5861 0012525 228.6081 131.4027 14.30988754981802 COSMO-SKYMED 1 1 31598U 07023A 26036.83519316 .00007175 00000+0 63997-3 0 9997 2 31598 97.8855 227.6193 0001060 74.1353 285.9985 14.96286084 10140 TERRASAR-X 1 31698U 07026A 26036.58689068 .00002195 00000+0 10769-3 0 9991 2 31698 97.4457 46.1683 0001864 77.9896 282.1547 15.19158202 33243 WORLDVIEW-1 (WV-1) 1 32060U 07041A 26036.79665314 .00013290 00000+0 55201-3 0 9991 2 32060 97.3810 158.4563 0001039 257.9346 102.1775 15.23944976 22863 YAOGAN-3 1 32289U 07055A 26036.88327472 .00003142 00000+0 33002-3 0 9999 2 32289 97.8309 68.0066 0001609 100.6839 259.4560 14.90192286986300 COSMO-SKYMED 2 1 32376U 07059A 26036.85305564 .00000957 00000+0 12673-3 0 9997 2 32376 97.8840 222.3538 0001550 83.6226 276.5164 14.82154263982547 RADARSAT-2 1 32382U 07061A 26036.84240029 -.00000009 00000+0 13462-4 0 9997 2 32382 98.5806 45.6346 0001164 84.2257 275.9058 14.29979132947186 CARTOSAT-2A 1 32783U 08021A 26036.80974674 .00000502 00000+0 74674-4 0 9994 2 32783 97.7838 89.8908 0011816 171.7336 188.4072 14.79037598959381 HUANJING 1A (HJ-1A) 1 33320U 08041A 26036.86991841 .00003330 00000+0 40871-3 0 9998 2 33320 97.6600 27.8895 0018177 205.5984 154.4332 14.83615632938930 HUANJING 1B (HJ-1B) 1 33321U 08041B 26036.91766178 .00002363 00000+0 29398-3 0 9994 2 33321 97.6445 31.4853 0035048 253.9615 105.7738 14.83016485938959 GEOEYE 1 1 33331U 08042A 26036.78490718 .00000880 00000+0 17420-3 0 9990 2 33331 98.1268 112.3753 0004931 105.8886 254.2861 14.64726049930917 THEOS 1 33396U 08049A 26036.84965876 .00000177 00000+0 10307-3 0 9993 2 33396 98.5770 98.2903 0001135 85.0584 275.0723 14.20111288899328 COSMO-SKYMED 3 1 33412U 08054A 26036.82912193 .00006249 00000+0 43254-3 0 9993 2 33412 97.8429 253.1640 0016124 356.4817 3.6293 15.05945020937163 YAOGAN-4 1 33446U 08061A 26036.80410824 .00001606 00000+0 20446-3 0 9990 2 33446 97.9227 331.3842 0015329 134.3866 225.8605 14.82880246926191 GOSAT (IBUKI) 1 33492U 09002A 26036.75164005 .00001359 00000+0 24811-3 0 9993 2 33492 98.0766 149.5894 0001508 92.2270 267.9107 14.67546476912188 DEIMOS-1 1 35681U 09041A 26036.79847972 .00000610 00000+0 97585-4 0 9991 2 35681 97.7198 199.8584 0000201 140.6690 219.4534 14.75059110887519 DUBAISAT-1 1 35682U 09041B 26036.82193659 .00002225 00000+0 33938-3 0 9997 2 35682 97.9829 171.7093 0011445 128.8094 231.4139 14.74809564885737 OCEANSAT-2 1 35931U 09051A 26036.87877269 -.00000140 00000+0 -70008-4 0 9992 2 35931 98.2263 36.8975 0015717 246.7585 113.1927 13.99641599860968 WORLDVIEW-2 (WV-2) 1 35946U 09055A 26036.78628502 .00000265 00000+0 10254-3 0 9998 2 35946 98.4727 112.1023 0003019 247.6317 112.4550 14.37826372856762 SMOS 1 36036U 09059A 26036.49408318 .00000493 00000+0 17129-3 0 9993 2 36036 98.4406 225.7380 0001253 87.3596 272.7736 14.39734138854506 YAOGAN-7 1 36110U 09069A 26036.67719388 .00001091 00000+0 15826-3 0 9996 2 36110 98.0259 283.2280 0026022 102.5074 257.9049 14.77836023870206 TANDEM-X 1 36605U 10030A 26036.58688953 .00002171 00000+0 10653-3 0 9991 2 36605 97.4466 46.1684 0001901 95.5956 264.5496 15.19158133866662 CARTOSAT-2B 1 36795U 10035A 26036.45197744 .00001507 00000+0 21195-3 0 9990 2 36795 97.7764 88.6810 0010313 258.1563 101.8492 14.78735814840387 YAOGAN-10 1 36834U 10038A 26036.90826837 .00002862 00000+0 34283-3 0 9996 2 36834 97.9107 61.3151 0001537 93.5824 1.7268 14.84878865837723 COSMO-SKYMED 4 1 37216U 10060A 26036.79817829 .00000571 00000+0 78269-4 0 9992 2 37216 97.8828 222.2997 0001294 83.6531 276.4829 14.82148954825108 RESOURCESAT-2 1 37387U 11015A 26036.75565089 -.00000088 00000+0 -20080-4 0 9999 2 37387 98.7789 105.0336 0005044 229.6947 130.3789 14.21455261767505 HAIYANG-2A 1 37781U 11043A 26036.41823747 .00000009 00000+0 52246-4 0 9999 2 37781 99.3395 41.5151 0000881 10.3920 349.7250 13.78751243728520 RASAT 1 37791U 11044D 26036.85507412 .00001052 00000+0 19167-3 0 9990 2 37791 98.0595 130.2861 0019381 247.7721 252.2619 14.68008867773910 SRMSAT 1 37841U 11058D 26036.68349419 .00000536 00000+0 14731-3 0 9991 2 37841 19.9711 135.4160 0011578 196.7827 317.6264 14.11535642739218 PLEIADES 1A 1 38012U 11076F 26036.83649339 .00000524 00000+0 12240-3 0 9993 2 38012 98.1737 113.7331 0001265 103.2847 33.8800 14.58571593752845 ZIYUAN 1-02C (ZY 1-02C) 1 38038U 11079A 26036.87255116 .00000549 00000+0 19556-3 0 9998 2 38038 98.4238 106.8494 0006119 351.3471 137.8235 14.38088611740337 ARIRANG-3 (KOMPSAT-3) 1 38338U 12025B 26036.84455016 .00001424 00000+0 29343-3 0 9999 2 38338 98.1788 356.5770 0006349 154.1430 206.0090 14.61973230732152 EXACTVIEW-1 (ADS-1B) 1 38709U 12039C 26036.79511556 .00000256 00000+0 12923-3 0 9990 2 38709 98.9626 151.3401 0010867 185.0190 175.0881 14.24937319703991 SPOT 6 1 38755U 12047A 26036.82464348 .00000321 00000+0 78933-4 0 9997 2 38755 98.2285 105.5803 0001173 97.1624 262.9708 14.58514887713902 PLEIADES 1B 1 39019U 12068A 26036.84447763 .00000374 00000+0 90319-4 0 9998 2 39019 98.2075 113.6434 0001412 103.4560 256.6797 14.58554587701703 GOKTURK 2 1 39030U 12073A 26036.85634118 .00001142 00000+0 17518-3 0 9993 2 39030 97.6882 240.8005 0002002 71.4037 288.7390 14.75389533705144 LANDSAT 8 1 39084U 13008A 26036.79785514 .00000633 00000+0 15055-3 0 9999 2 39084 98.1982 109.0354 0001304 92.9958 267.1390 14.57117498678764 SARAL 1 39086U 13009A 26036.82734267 .00000191 00000+0 86133-4 0 9990 2 39086 98.5528 225.0442 0001363 351.1552 8.9608 14.32781697676793 GAOFEN-1 1 39150U 13018A 26036.86491892 .00000669 00000+0 10303-3 0 9995 2 39150 97.9238 111.5257 0016623 334.0917 25.9459 14.76549347688865 VNREDSAT 1 1 39160U 13021B 26036.80931400 .00000918 00000+0 17969-3 0 9990 2 39160 97.9278 95.1337 0001462 96.1688 263.9682 14.65026587681052 ARIRANG-5 (KOMPSAT-5) 1 39227U 13042A 26036.81219189 .00004519 00000+0 32701-3 0 9993 2 39227 97.6160 225.3380 0001892 207.3677 152.7450 15.04504249684106 SKYSAT-A 1 39418U 13066C 26036.67559447 .00005639 00000+0 32906-3 0 9990 2 39418 97.4019 90.2067 0023038 52.0359 308.2949 15.12106500668603 DUBAISAT-2 1 39419U 13066D 26036.89760436 .00005521 00000+0 35242-3 0 9993 2 39419 97.4503 30.6414 0013225 119.2107 241.0446 15.09002563666581 GPM-CORE 1 39574U 14009C 26035.61779446 .00010855 00000+0 23607-3 0 9991 2 39574 64.9742 32.1896 0010005 249.6895 110.3171 15.44687551677336 SENTINEL-1A 1 39634U 14016A 26036.84752690 .00000089 00000+0 28572-4 0 9999 2 39634 98.1810 46.2774 0001332 84.2750 275.8601 14.59199069630864 KAZEOSAT 1 1 39731U 14024A 26036.81308822 .00000245 00000+0 87714-4 0 9994 2 39731 98.3344 112.4624 0001080 92.2151 267.9162 14.42065648619622 ALOS-2 1 39766U 14029A 26036.86380733 .00000381 00000+0 57880-4 0 9995 2 39766 97.9220 135.9188 0001505 95.5808 264.5575 14.79485304632160 KAZEOSAT 2 1 40010U 14033A 26036.80241641 .00001430 00000+0 17225-3 0 9996 2 40010 97.5488 243.2736 0009687 40.5388 319.6548 14.85283590629450 HODOYOSHI-4 1 40011U 14033B 26036.83264297 .00002934 00000+0 32583-3 0 9996 2 40011 97.5431 228.0141 0024487 24.3733 335.8636 14.87728869629272 DEIMOS-2 1 40013U 14033D 26036.80101603 .00002649 00000+0 25838-3 0 9994 2 40013 97.6016 275.7842 0002174 74.1824 285.9636 14.93266937618110 HODOYOSHI-3 1 40015U 14033F 26036.74376590 .00002048 00000+0 24349-3 0 9997 2 40015 97.6250 205.2081 0034326 68.4828 292.0041 14.85041183628114 SPOT 7 1 40053U 14034A 26036.81396291 .00000574 00000+0 12680-3 0 9995 2 40053 98.0811 102.5990 0001097 86.1563 273.9763 14.60821267617955 SKYSAT-B 1 40072U 14037D 26036.84805014 .00002930 00000+0 32907-3 0 9992 2 40072 98.3687 348.4955 0005528 359.5199 0.6009 14.87592149626431 WORLDVIEW-3 (WV-3) 1 40115U 14048A 26036.76499602 .00001600 00000+0 19499-3 0 9999 2 40115 97.8694 113.3712 0002300 57.4970 302.6466 14.84758674622406 GAOFEN-2 1 40118U 14049A 26036.88523998 .00001040 00000+0 14211-3 0 9997 2 40118 98.0289 101.1284 0006267 306.1766 53.8866 14.80720804619803 YAOGAN-21 1 40143U 14053A 26036.83515187 .00007849 00000+0 32219-3 0 9997 2 40143 97.1673 82.7538 0008062 186.2682 173.8457 15.24446670634938 YAOGAN-22 1 40275U 14063A 26036.84534101 -.00000027 00000+0 53128-4 0 9997 2 40275 100.7477 186.0546 0006804 124.8133 235.3619 13.15525447542542 ASNARO 1 40298U 14070A 26036.85393023 .00011328 00000+0 53660-3 0 9992 2 40298 97.3566 116.4358 0004349 239.9528 120.1276 15.19474794624065 YAOGAN-24 1 40310U 14072A 26036.85294986 .00001157 00000+0 17487-3 0 9993 2 40310 98.1260 173.2514 0012582 329.7599 30.2883 14.76159218604346 CBERS 4 1 40336U 14079A 26036.85858936 -.00000192 00000+0 -52216-4 0 9999 2 40336 98.3092 97.9639 0001103 46.0814 314.0464 14.35520921585114 YAOGAN-26 1 40362U 14088A 26036.88409780 .00037268 00000+0 88002-3 0 9993 2 40362 97.0656 40.6859 0006024 141.2018 218.9664 15.41749123617435 SMAP 1 40376U 15003A 26036.79735814 .00000866 00000+0 17647-3 0 9997 2 40376 98.1304 45.7346 0001447 90.0167 270.1201 14.63435216588408 KOMPSAT-3A 1 40536U 15014A 26036.91707874 .00046700 00000+0 85270-3 0 9990 2 40536 97.6838 19.4285 0063188 295.7928 63.6810 15.47029299601478 SENTINEL-2A 1 40697U 15028A 26036.80916889 .00000174 00000+0 82824-4 0 9997 2 40697 98.5628 113.5764 0001097 95.8841 264.2466 14.30820384554945 GAOFEN-8 1 40701U 15030A 26036.87999203 .00036496 00000+0 88101-3 0 9993 2 40701 97.6916 222.8079 0009522 308.6901 51.3492 15.41063663591191 CARBONITE 1 (CBNT-1) 1 40718U 15032D 26036.84502010 .00005192 00000+0 64270-3 0 9996 2 40718 97.6429 220.4813 0014794 10.6414 349.5111 14.83065227569877 YAOGAN-27 1 40878U 15040A 26036.89243428 -.00000405 00000+0 -95595-3 0 9990 2 40878 100.1063 29.0303 0008413 153.6395 206.5148 13.16061727500392 GAOFEN-9 01 1 40894U 15047A 26036.87434398 .00001894 00000+0 24027-3 0 9994 2 40894 97.6471 78.4350 0026759 208.2428 151.7336 14.82601475560738 YAOGAN-28 1 41026U 15064A 26036.89190755 .00016989 00000+0 67310-3 0 9992 2 41026 97.2852 178.1810 0010037 298.6437 61.3791 15.25431030570658 YAOGAN-29 1 41038U 15069A 26036.87974866 .00000227 00000+0 34595-4 0 9999 2 41038 98.0172 65.2188 0002849 89.2994 270.8546 14.82956467551161 KENT RIDGE 1 1 41167U 15077B 26036.69527652 .00008424 00000+0 32334-3 0 9993 2 41167 14.9790 163.2192 0008512 184.4835 175.5411 15.22170460561020 GAOFEN-4 1 41194U 15083A 26036.86226140 -.00000335 00000+0 00000+0 0 9992 2 41194 0.3114 83.7048 0003173 87.4231 20.9649 1.00270200 37214 JASON-3 1 41240U 16002A 26036.81817318 -.00000047 00000+0 58275-4 0 9996 2 41240 66.0418 42.0259 0007967 275.0449 84.9660 12.87627258470338 SENTINEL-3A 1 41335U 16011A 26036.79310923 .00000200 00000+0 10087-3 0 9996 2 41335 98.6295 106.0340 0001124 105.6192 254.5112 14.26734617519324 ZIYUAN 3-02 (ZY 3-02) 1 41556U 16033A 26036.83927190 .00014285 00000+0 64357-3 0 9997 2 41556 97.3954 115.0674 0013685 52.9348 307.3137 15.21076038538012 CARTOSAT-2C 1 41599U 16040A 26036.79290981 .00008467 00000+0 40555-3 0 9997 2 41599 97.4667 98.4517 0008740 233.5417 126.5012 15.19156437533760 SKYSAT-C1 1 41601U 16040C 26036.67543317 .00014813 00000+0 45446-3 0 9998 2 41601 96.9750 75.6129 0004104 116.6335 243.5329 15.33832175537690 LAPAN-A3 1 41603U 16040E 26036.89408221 .00006864 00000+0 22344-3 0 9997 2 41603 97.1462 37.4726 0012206 120.8858 239.3586 15.32094796534708 GAOFEN-3 1 41727U 16049A 26036.89027870 .00000086 00000+0 39406-4 0 9998 2 41727 98.4044 46.6381 0001036 105.9209 254.2095 14.42207684499722 SKYSAT-C4 1 41771U 16058B 26036.59075696 .00024682 00000+0 53813-3 0 9998 2 41771 96.9321 64.1643 0002883 66.9478 293.2075 15.44227891525134 SKYSAT-C5 1 41772U 16058C 26036.66712620 .00015187 00000+0 46004-3 0 9996 2 41772 97.0667 83.1102 0004630 105.2627 254.9128 15.34231789523586 SKYSAT-C2 1 41773U 16058D 26036.59358284 .00019375 00000+0 50592-3 0 9991 2 41773 97.0314 63.8352 0004342 141.1663 218.9896 15.38821604524798 SKYSAT-C3 1 41774U 16058E 26036.61563612 .00029979 00000+0 59695-3 0 9992 2 41774 96.9226 72.8713 0002109 81.6956 278.4534 15.46859061525734 ALSAT-1B 1 41785U 16059C 26036.86205844 .00000581 00000+0 99725-4 0 9999 2 41785 97.7802 51.2732 0007989 293.6781 66.3588 14.72150564501253 PATHFINDER 1 1 41787U 16059E 26036.54721442 .00001353 00000+0 24604-3 0 9994 2 41787 97.8158 41.7878 0027079 265.9439 93.8671 14.67456781500407 SCATSAT 1 1 41790U 16059H 26036.72553191 .00002142 00000+0 28946-3 0 9992 2 41790 98.1372 99.0660 0053994 312.5905 47.0757 14.79157705 82150 GOKTURK 1A 1 41875U 16073A 26036.84187828 .00000778 00000+0 16174-3 0 9998 2 41875 98.1403 293.4643 0001317 81.4544 278.6807 14.62791661489621 RESOURCESAT-2A 1 41877U 16074A 26036.80743104 .00000224 00000+0 12245-3 0 9993 2 41877 98.7666 111.3212 0003157 100.4917 259.6616 14.21607416475632 CARTOSAT-2D 1 41948U 17008A 26036.82693598 .00011603 00000+0 55409-3 0 9995 2 41948 97.4296 98.4594 0005283 349.9691 10.1437 15.19189496497631 SENTINEL-2B 1 42063U 17013A 26036.80884728 .00000242 00000+0 10913-3 0 9993 2 42063 98.5628 113.4615 0001108 90.5354 269.5956 14.30819678465859 CARTOSAT-2E 1 42767U 17036C 26036.84374053 .00003982 00000+0 19233-3 0 9996 2 42767 97.4458 98.6852 0004513 45.8498 314.3107 15.19211095478208 FORMOSAT-5 1 42920U 17049A 26036.80965973 .00000378 00000+0 10697-3 0 9995 2 42920 98.2369 114.9973 0012018 125.3823 234.8496 14.50803536447620 SENTINEL-5P 1 42969U 17064A 26036.81598932 .00000149 00000+0 91657-4 0 9995 2 42969 98.7845 339.9299 0001179 84.3008 275.8303 14.19541088430925 SKYSAT-C11 1 42987U 17068A 26036.85317148 .00038011 00000+0 66642-3 0 9995 2 42987 97.4176 180.8384 0000704 69.0406 291.0920 15.50476616462842 SKYSAT-C10 1 42988U 17068B 26036.34225347 .00016218 00000+0 52660-3 0 9999 2 42988 97.4298 172.3284 0001948 91.5797 268.5667 15.32018477462155 SKYSAT-C9 1 42989U 17068C 26036.83962191 .00022759 00000+0 61289-3 0 9993 2 42989 97.4221 172.6052 0008313 247.7320 112.3043 15.37820626462547 SKYSAT-C8 1 42990U 17068D 26036.83021638 .00019268 00000+0 57843-3 0 9999 2 42990 97.4315 172.1398 0002844 111.4647 248.6900 15.34482614462153 SKYSAT-C7 1 42991U 17068E 26036.35686203 .00018008 00000+0 55213-3 0 9992 2 42991 97.4323 172.6582 0005908 209.4322 150.6588 15.33815716462140 SKYSAT-C6 1 42992U 17068F 26036.31410912 .00016966 00000+0 54816-3 0 9990 2 42992 97.4359 172.9767 0001820 175.6482 184.4776 15.32168719462112 CARTOSAT-2F 1 43111U 18004A 26036.81024075 .00006956 00000+0 33283-3 0 9994 2 43111 97.4226 98.5308 0001634 19.8250 340.3048 15.19286991447383 GAOFEN-1 02 1 43259U 18031A 26036.89066896 .00001095 00000+0 16493-3 0 9995 2 43259 98.0712 99.6748 0004268 69.8812 290.2856 14.76416404423322 GAOFEN-1 03 1 43260U 18031B 26036.86886075 .00001554 00000+0 23082-3 0 9995 2 43260 98.0704 99.5250 0004062 122.8133 237.3469 14.76441940423314 GAOFEN-1 04 1 43262U 18031D 26036.84455784 .00000792 00000+0 12126-3 0 9994 2 43262 98.0712 99.6756 0001771 111.9953 248.1445 14.76453473423307 SENTINEL-3B 1 43437U 18039A 26036.76624796 .00000207 00000+0 10339-3 0 9993 2 43437 98.6294 106.1542 0000703 75.3563 284.7696 14.26730847405383 GAOFEN-5 01 1 43461U 18043A 26036.80112816 .00000742 00000+0 16318-3 0 9992 2 43461 98.4409 5.7568 0002867 110.2083 249.9425 14.60486617412514 GAOFEN-6 1 43484U 18048A 26036.87859417 .00001212 00000+0 18051-3 0 9993 2 43484 97.7937 104.2707 0010973 237.7537 122.2610 14.76600726414015 GAOFEN-11 01 1 43585U 18063A 26036.88215642 .00012063 00000+0 20807-3 0 9997 2 43585 97.1469 104.3965 0006191 99.6483 260.5469 15.51151973419966 ICESAT-2 1 43613U 18070A 26036.80411449 .00004647 00000+0 16862-3 0 9997 2 43613 92.0000 255.5862 0000531 37.5679 322.5607 15.28301816412398 HYSIS 1 43719U 18096A 26036.86305216 .00001300 00000+0 18441-3 0 9990 2 43719 98.0005 104.5459 0001121 130.3331 229.7978 14.78671016388010 KAZSTSAT 1 43783U 18099AB 26036.65679427 .00002538 00000+0 21088-3 0 9994 2 43783 97.4488 74.4495 0009717 110.3043 249.9226 14.99547038391597 SAUDISAT 5A 1 43831U 18102A 26036.87016067 .00011566 00000+0 44516-3 0 9994 2 43831 97.3254 101.0012 0008681 233.8485 126.1952 15.26496959395630 SAUDISAT 5B 1 43833U 18102C 26036.84853354 .00011502 00000+0 43840-3 0 9990 2 43833 97.3349 103.8160 0009382 237.1016 122.9321 15.26818996395742 GAOFEN-10R 1 44622U 19066A 26036.85374098 .00003096 00000+0 38715-3 0 9995 2 44622 98.0353 349.6059 0005982 202.7672 157.3276 14.83038056342912 CARTOSAT-3 1 44804U 19081A 26036.89070409 .00005740 00000+0 27479-3 0 9990 2 44804 97.4489 100.7481 0012194 251.8695 108.1212 15.19283636343534 GAOFEN-12 01 1 44819U 19082A 26036.21029470 .00000790 00000+0 10917-3 0 9994 2 44819 97.8134 46.0668 0004032 80.2945 279.8723 14.80739315334567 CSG-1 1 44873U 19092A 26036.40578581 .00000956 00000+0 12655-3 0 9993 2 44873 97.8841 221.9140 0001223 87.0722 273.0631 14.82167803331951 NEMO-HD 1 46277U 20061F 26036.82443038 .00018882 00000+0 44812-3 0 9992 2 46277 97.2110 100.2449 0002259 117.7175 242.4302 15.41748767301725 SENTINEL-6A 1 46984U 20086A 26036.44947612 -.00000059 00000+0 81153-5 0 9998 2 46984 66.0410 48.6741 0007891 270.2830 89.7281 12.80929367243457 GAOFEN-12 02 1 48079U 21026A 26036.88332485 .00000449 00000+0 66126-4 0 9998 2 48079 97.9891 35.6383 0003699 311.9837 48.1060 14.80162768262338 PLEIADES NEO 3 1 48268U 21034A 26036.83497270 .00000336 00000+0 49266-4 0 9997 2 48268 97.8937 113.4863 0001351 89.4505 270.6862 14.81673070258205 PLEIADES NEO 4 1 49070U 21073E 26036.93625346 .00000243 00000+0 37468-4 0 9998 2 49070 97.8939 113.5826 0001223 100.0572 260.0779 14.81674283241930 LANDSAT 9 1 49260U 21088A 26036.76366173 .00000632 00000+0 15034-3 0 9992 2 49260 98.2003 109.0538 0001319 92.2708 267.8642 14.57114298231860 CSG-2 1 51444U 22008A 26036.84462078 .00000347 00000+0 50173-4 0 9999 2 51444 97.8828 222.3448 0001443 77.1776 282.9598 14.82161903217136 GAOFEN-12 03 1 52912U 22069A 26036.81695639 .00001369 00000+0 18866-3 0 9992 2 52912 97.8451 287.8902 0001021 115.4929 244.6389 14.79774468195183 SWOT 1 54754U 22173A 26036.79824414 .00000140 00000+0 96600-4 0 9995 2 54754 77.6082 212.6653 0000448 358.1419 1.9731 14.00172471160767 GAOFEN-12 04 1 57654U 23123A 26036.84860485 .00002765 00000+0 37317-3 0 9991 2 57654 97.9135 316.7817 0001677 91.0790 269.0614 14.79907987133201 PARS 1 1 59065U 24039Q 26036.90250269 .00021499 00000+0 49596-3 0 9993 2 59065 97.4711 14.0887 0008436 219.3127 140.7509 15.42548060108381 RESURS-P 4 1 59371U 24061A 26036.88737752 .00007109 00000+0 22799-3 0 9990 2 59371 97.2616 347.1296 0003106 99.7681 260.3912 15.32635331103650 LEGION 1 1 59625U 24081A 26036.81689108 .00008085 00000+0 41029-3 0 9999 2 59625 97.5127 115.9878 0006328 109.6314 250.5603 15.17167167 97629 LEGION 2 1 59626U 24081B 26036.78336947 .00007720 00000+0 39157-3 0 9990 2 59626 97.5128 116.0454 0008350 97.0398 263.1785 15.17185704 97620 ALOS-4 (DAICHI-4) 1 60182U 24123A 26036.88315356 .00003580 00000+0 48597-3 0 9996 2 60182 97.9215 135.9411 0001443 102.5102 257.6271 14.79474238 86462 LEGION 3 1 60452U 24146A 26036.78366978 .00008280 00000+0 43898-3 0 9997 2 60452 45.0022 15.0097 0011637 147.0592 213.1013 15.15783291 82081 LEGION 4 1 60453U 24146B 26036.65079258 .00008541 00000+0 45194-3 0 9997 2 60453 45.0021 107.5758 0012273 279.0446 80.9043 15.15809815 80917 SENTINEL-2C 1 60989U 24157A 26036.77394876 .00000206 00000+0 95115-4 0 9991 2 60989 98.5678 113.4495 0001094 78.8241 281.3064 14.30813018 74192 IONOSFERA-M 1 1 61735U 24199A 26036.82382251 .00000108 00000+0 68127-4 0 9991 2 61735 98.7366 271.2377 0001647 121.9205 238.2133 14.22729176109025 IONOSFERA-M 2 1 61736U 24199B 26036.85837735 .00000105 00000+0 66648-4 0 9990 2 61736 98.7370 271.1838 0001222 41.0477 319.0792 14.22731449112157 BIOMASS 1 63772U 25090A 26036.50597314 .00001836 00000+0 33633-3 0 9990 2 63772 98.0722 225.7176 0001237 88.7899 271.3447 14.66985256 41372 GOSAT-GW (IBUKI GW) 1 64694U 25141A 26036.87281294 .00002164 00000+0 38966-3 0 9997 2 64694 98.0477 336.4013 0001534 83.7026 276.4353 14.67562586 32583 IONOSFERA-M 3 1 64876U 25155A 26036.89923895 .00000148 00000+0 87379-4 0 9999 2 64876 98.5867 2.2272 0000575 179.7288 180.3890 14.21458484 27751 IONOSFERA-M 4 1 64877U 25155B 26036.86386669 .00000172 00000+0 98043-4 0 9996 2 64877 98.5863 2.1116 0000719 120.9933 239.1315 14.21460096 27745 MICROCARB 1 64899U 25156A 26036.77484890 .00001053 00000+0 17475-3 0 9994 2 64899 97.9943 116.2204 0015684 336.5516 23.4975 14.72168444 28638 CO3D 3 1 64900U 25156B 26036.80535131 .00050870 00000+0 23366-2 0 9992 2 64900 97.4332 117.3834 0000511 303.9554 56.1632 15.20205438 29578 CO3D 4 1 64901U 25156C 26036.80550682 .00003494 00000+0 16444-3 0 9991 2 64901 97.4332 117.3832 0001248 39.4579 320.6747 15.20207340 29573 CO3D 2 1 64902U 25156D 26036.83798036 .00014378 00000+0 66609-3 0 9993 2 64902 97.4329 117.3139 0000269 214.8056 145.3162 15.20198259 29572 CO3D 1 1 64903U 25156E 26036.83812688 .00010902 00000+0 50600-3 0 9997 2 64903 97.4335 117.3132 0000266 249.0364 111.0842 15.20202760 29570 SENTINEL-6B 1 66514U 25264A 26036.29367385 -.00000056 00000+0 22915-4 0 9995 2 66514 66.0411 49.1238 0008065 270.4316 89.5775 12.80930362 10276 CSG-3 1 67304U 26001A 26036.82354190 .00000769 00000+0 10313-3 0 9990 2 67304 97.8836 222.3255 0001259 89.0828 271.0529 14.82158888 5000